,,,PA_Meas_PMT16A,,PR_Meas_QMR101_102,,RH_Meas_QMH101,,SR_Meas_QMS101,,TA_Meas_QMH101,,GenWind,,GenWind,
date,time,status,PA,status,PR,status,RH,status,SR,status,TA,status,DirAvg,status,SpdAvg,
2011-03-02, 00:00:04,VALID,1003.18,VALID,0,INVALID,163.67,VALID,0,VALID,24.8503,VALID,3,VALID,0.448047,
2011-03-02, 00:01:04,VALID,1003.16,VALID,0,INVALID,163.685,VALID,0.100563,VALID,24.8095,VALID,3,VALID,0.439453,
2011-03-02, 00:02:04,VALID,1003.15,VALID,0,INVALID,163.655,VALID,0.100563,VALID,24.8095,VALID,3,VALID,0.439844,
2011-03-02, 00:03:04,VALID,1003.15,VALID,0,INVALID,163.685,VALID,0,VALID,24.8503,VALID,3,VALID,0.371875,
2011-03-02, 00:04:04,VALID,1003.15,VALID,0,INVALID,163.67,VALID,0,VALID,24.8697,VALID,3,VALID,0.528516,
2011-03-02, 00:05:04,VALID,1003.17,VALID,0,INVALID,163.662,VALID,0,VALID,24.8484,VALID,3,VALID,0.405859,
2011-03-02, 00:06:04,VALID,1003.18,VALID,0,INVALID,163.662,VALID,0.100563,VALID,24.8697,VALID,3,VALID,0.5875,
2011-03-02, 00:07:04,VALID,1003.15,VALID,0,INVALID,163.655,VALID,0.100563,VALID,24.8697,VALID,3,VALID,0.664063,
2011-03-02, 00:08:04,VALID,1003.12,VALID,0,INVALID,163.67,VALID,0.100563,VALID,24.8484,VALID,3,VALID,0.523828,
2011-03-02, 00:09:04,VALID,1003.09,VALID,0,INVALID,163.685,VALID,0,VALID,24.8697,VALID,3,VALID,0.462891,
2011-03-02, 00:10:04,VALID,1003.08,VALID,0,INVALID,163.655,VALID,0,VALID,24.8892,VALID,3,VALID,0.445313,
2011-03-02, 00:11:04,VALID,1003.01,VALID,0,INVALID,163.655,VALID,0.100563,VALID,24.8679,VALID,3,VALID,0.00585938,
2011-03-02, 00:12:04,VALID,1003.01,VALID,0,INVALID,163.662,VALID,0.100563,VALID,24.8892,VALID,3,VALID,0,
2011-03-02, 00:13:04,VALID,1002.96,VALID,0,INVALID,163.662,VALID,0,VALID,24.8697,VALID,3,VALID,0,
2011-03-02, 00:14:04,VALID,1002.98,VALID,0,INVALID,163.647,VALID,0,VALID,24.8716,VALID,3,VALID,0,
2011-03-02, 00:15:04,VALID,1002.96,VALID,0,INVALID,163.662,VALID,0,VALID,24.8911,VALID,3,VALID,0,
2011-03-02, 00:16:04,VALID,1002.97,VALID,0,INVALID,163.662,VALID,0,VALID,24.8892,VALID,3,VALID,0,
2011-03-02, 00:17:04,VALID,1002.92,VALID,0,INVALID,163.647,VALID,0,VALID,24.9106,VALID,3,VALID,0,
2011-03-02, 00:18:04,VALID,1002.92,VALID,0,INVALID,163.647,VALID,0,VALID,24.9106,VALID,3,VALID,0,
2011-03-02, 00:19:04,VALID,1002.88,VALID,0,INVALID,163.693,VALID,0,VALID,24.9106,VALID,3,VALID,0,
2011-03-02, 00:20:04,VALID,1002.85,VALID,0,INVALID,163.662,VALID,0,VALID,24.93,VALID,3,VALID,0,
2011-03-02, 00:21:04,VALID,1002.85,VALID,0,INVALID,163.685,VALID,0,VALID,24.9106,VALID,3,VALID,0,
2011-03-02, 00:22:04,VALID,1002.82,VALID,0,INVALID,163.624,VALID,0,VALID,24.9319,VALID,3,VALID,0,
2011-03-02, 00:23:04,VALID,1002.82,VALID,0,INVALID,163.662,VALID,0,VALID,24.8911,VALID,3,VALID,0,
2011-03-02, 00:24:04,VALID,1002.82,VALID,0,INVALID,163.67,VALID,0,VALID,24.8911,VALID,3,VALID,0,
2011-03-02, 00:25:04,VALID,1002.79,VALID,0,INVALID,163.662,VALID,0,VALID,24.8911,VALID,3,VALID,0,
2011-03-02, 00:26:04,VALID,1002.76,VALID,0,INVALID,163.678,VALID,0,VALID,24.8716,VALID,18,VALID,0.591797,
2011-03-02, 00:27:04,VALID,1002.74,VALID,0,INVALID,163.662,VALID,0,VALID,24.8113,VALID,18,VALID,0.723047,
2011-03-02, 00:28:04,VALID,1002.72,VALID,0,INVALID,163.662,VALID,0,VALID,24.8132,VALID,18,VALID,0.613672,
2011-03-02, 00:29:04,VALID,1002.73,VALID,0,INVALID,163.67,VALID,0,VALID,24.7919,VALID,18,VALID,0.549609,
2011-03-02, 00:30:04,VALID,1002.7,VALID,0,INVALID,163.685,VALID,0,VALID,24.8132,VALID,18,VALID,0.393359,
2011-03-02, 00:31:04,VALID,1002.66,VALID,0,INVALID,163.678,VALID,0,VALID,24.8327,VALID,18,VALID,0.444531,
2011-03-02, 00:32:04,VALID,1002.68,VALID,0,INVALID,163.655,VALID,0,VALID,24.8308,VALID,18,VALID,0.402344,
2011-03-02, 00:33:04,VALID,1002.63,VALID,0,INVALID,163.655,VALID,0,VALID,24.854,VALID,18,VALID,0.417188,
2011-03-02, 00:34:04,VALID,1002.63,VALID,0,INVALID,163.678,VALID,0,VALID,24.8503,VALID,18,VALID,0.373437,
2011-03-02, 00:35:04,VALID,1002.63,VALID,0,INVALID,163.662,VALID,0,VALID,24.8503,VALID,18,VALID,0.353906,
2011-03-02, 00:36:04,VALID,1002.61,VALID,0,INVALID,163.662,VALID,0,VALID,24.8716,VALID,18,VALID,0.269531,
2011-03-02, 00:37:04,VALID,1002.59,VALID,0,INVALID,163.655,VALID,0,VALID,24.8503,VALID,18,VALID,0.576953,
2011-03-02, 00:38:04,VALID,1002.59,VALID,0,INVALID,163.639,VALID,0,VALID,24.8522,VALID,18,VALID,0.549219,
2011-03-02, 00:39:04,VALID,1002.55,VALID,0,INVALID,163.67,VALID,0,VALID,24.8522,VALID,18,VALID,0.399609,
2011-03-02, 00:40:04,VALID,1002.54,VALID,0,INVALID,163.678,VALID,0,VALID,24.8503,VALID,18,VALID,0.519141,
2011-03-02, 00:41:04,VALID,1002.52,VALID,0,INVALID,163.655,VALID,0,VALID,24.8911,VALID,18,VALID,0.537109,
2011-03-02, 00:42:04,VALID,1002.46,VALID,0,INVALID,163.662,VALID,0,VALID,24.8716,VALID,18,VALID,0.675781,
2011-03-02, 00:43:04,VALID,1002.47,VALID,0,INVALID,163.632,VALID,0,VALID,24.8503,VALID,18,VALID,0.686328,
2011-03-02, 00:44:04,VALID,1002.39,VALID,0,INVALID,163.662,VALID,0,VALID,24.8522,VALID,18,VALID,0.467187,
2011-03-02, 00:45:04,VALID,1002.37,VALID,0,INVALID,163.662,VALID,0,VALID,24.8522,VALID,18,VALID,0.385547,
2011-03-02, 00:46:04,VALID,1002.32,VALID,0,INVALID,163.662,VALID,0,VALID,24.8735,VALID,18,VALID,0.3,
2011-03-02, 00:47:04,VALID,1002.3,VALID,0,INVALID,163.678,VALID,0,VALID,24.8716,VALID,18,VALID,0.228125,
2011-03-02, 00:48:04,VALID,1002.29,VALID,0,INVALID,163.639,VALID,0,VALID,24.8697,VALID,18,VALID,0.225,
2011-03-02, 00:49:04,VALID,1002.28,VALID,0,INVALID,163.67,VALID,0,VALID,24.8716,VALID,18,VALID,0.30625,
2011-03-02, 00:50:04,VALID,1002.28,VALID,0,INVALID,163.67,VALID,0,VALID,24.8911,VALID,18,VALID,0.420312,
2011-03-02, 00:51:04,VALID,1002.3,VALID,0,INVALID,163.639,VALID,0,VALID,24.8697,VALID,18,VALID,0.186719,
2011-03-02, 00:52:04,VALID,1002.3,VALID,0,INVALID,163.67,VALID,0,VALID,24.8503,VALID,46,VALID,0.279297,
2011-03-02, 00:53:04,VALID,1002.3,VALID,0,INVALID,163.662,VALID,0,VALID,24.8716,VALID,46,VALID,0.319922,
2011-03-02, 00:54:04,VALID,1002.29,VALID,0,INVALID,163.67,VALID,0,VALID,24.8522,VALID,53,VALID,0.228516,
2011-03-02, 00:55:04,VALID,1002.29,VALID,0,INVALID,163.647,VALID,0,VALID,24.8522,VALID,53,VALID,0.105078,
2011-03-02, 00:56:04,VALID,1002.32,VALID,0,INVALID,163.662,VALID,0,VALID,24.8522,VALID,53,VALID,0,
2011-03-02, 00:57:04,VALID,1002.32,VALID,0,INVALID,163.624,VALID,0,VALID,24.8522,VALID,53,VALID,0.264062,
2011-03-02, 00:58:04,VALID,1002.32,VALID,0,INVALID,163.678,VALID,0,VALID,24.8327,VALID,53,VALID,0.205469,
2011-03-02, 00:59:04,VALID,1002.31,VALID,0,INVALID,163.678,VALID,0,VALID,24.8308,VALID,53,VALID,0.425391,
2011-03-02, 01:00:04,VALID,1002.32,VALID,0,INVALID,163.685,VALID,0,VALID,24.8522,VALID,53,VALID,0.308984,
2011-03-02, 01:01:04,VALID,1002.28,VALID,0,INVALID,163.655,VALID,0,VALID,24.8308,VALID,53,VALID,0.230078,
2011-03-02, 01:02:04,VALID,1002.28,VALID,0,INVALID,163.67,VALID,0,VALID,24.8522,VALID,53,VALID,0.260938,
2011-03-02, 01:03:04,VALID,1002.27,VALID,0,INVALID,163.67,VALID,0,VALID,24.8716,VALID,53,VALID,0,
2011-03-02, 01:04:04,VALID,1002.27,VALID,0,INVALID,163.67,VALID,0,VALID,24.8716,VALID,53,VALID,0,
2011-03-02, 01:05:04,VALID,1002.29,VALID,0,INVALID,163.647,VALID,0,VALID,24.8697,VALID,53,VALID,0.00234375,
2011-03-02, 01:06:04,VALID,1002.27,VALID,0,INVALID,163.662,VALID,0,VALID,24.8892,VALID,53,VALID,0.166016,
2011-03-02, 01:07:04,VALID,1002.28,VALID,0,INVALID,163.67,VALID,0,VALID,24.93,VALID,53,VALID,0.423828,
2011-03-02, 01:08:04,VALID,1002.27,VALID,0,INVALID,163.639,VALID,0,VALID,24.9106,VALID,53,VALID,0.189063,
2011-03-02, 01:09:04,VALID,1002.24,VALID,0,INVALID,163.67,VALID,0,VALID,24.9087,VALID,53,VALID,0.197656,
2011-03-02, 01:10:04,VALID,1002.22,VALID,0,INVALID,163.662,VALID,0,VALID,24.9282,VALID,53,VALID,0.196094,
2011-03-02, 01:11:04,VALID,1002.13,VALID,0,INVALID,163.662,VALID,0,VALID,24.9495,VALID,53,VALID,0,
2011-03-02, 01:12:04,VALID,1002.13,VALID,0,INVALID,163.632,VALID,0,VALID,24.9495,VALID,53,VALID,0.0015625,
2011-03-02, 01:13:04,VALID,1002.05,VALID,0,INVALID,163.678,VALID,0.100563,VALID,24.9671,VALID,53,VALID,0,
2011-03-02, 01:14:04,VALID,1002.04,VALID,0,INVALID,163.655,VALID,0,VALID,24.9866,VALID,53,VALID,0,
2011-03-02, 01:15:04,VALID,1002.02,VALID,0,INVALID,163.647,VALID,0,VALID,24.9866,VALID,53,VALID,0,
2011-03-02, 01:16:04,VALID,1002.02,VALID,0,INVALID,163.655,VALID,0,VALID,24.9866,VALID,53,VALID,0,
2011-03-02, 01:17:04,VALID,1002,VALID,0,INVALID,163.624,VALID,0,VALID,24.9866,VALID,53,VALID,0,
2011-03-02, 01:18:04,VALID,1002,VALID,0,INVALID,163.655,VALID,0,VALID,24.9866,VALID,53,VALID,0,
2011-03-02, 01:19:04,VALID,1002.06,VALID,0,INVALID,163.632,VALID,0,VALID,25.0255,VALID,55,VALID,0.531641,
2011-03-02, 01:20:04,VALID,1002.11,VALID,0,INVALID,163.655,VALID,0.100563,VALID,25.0644,VALID,138,VALID,0.987891,
2011-03-02, 01:21:04,VALID,1002.11,VALID,0,INVALID,163.632,VALID,0.100563,VALID,25.0839,VALID,151,VALID,0.938672,
2011-03-02, 01:22:04,VALID,1002.09,VALID,0,INVALID,163.662,VALID,0,VALID,25.1832,VALID,139,VALID,1.77656,
2011-03-02, 01:23:04,VALID,1002.06,VALID,0,INVALID,163.624,VALID,0.100563,VALID,25.337,VALID,149,VALID,2.88281,
2011-03-02, 01:24:04,VALID,1002.03,VALID,0,INVALID,163.609,VALID,0,VALID,25.5727,VALID,112,VALID,2.15391,
2011-03-02, 01:25:04,VALID,1002.02,VALID,0,INVALID,163.594,VALID,0,VALID,25.7674,VALID,123,VALID,3.12695,
2011-03-02, 01:26:04,VALID,1001.99,VALID,0,INVALID,163.594,VALID,0,VALID,25.8998,VALID,116,VALID,2.36367,
2011-03-02, 01:27:04,VALID,1001.95,VALID,0,INVALID,163.586,VALID,0,VALID,26.0187,VALID,134,VALID,1.86563,
2011-03-02, 01:28:04,VALID,1001.95,VALID,0,INVALID,163.563,VALID,0,VALID,26.0791,VALID,128,VALID,1.59961,
2011-03-02, 01:29:04,VALID,1001.94,VALID,0,INVALID,163.571,VALID,0,VALID,26.0771,VALID,118,VALID,2.04609,
2011-03-02, 01:30:04,VALID,1001.93,VALID,0,INVALID,163.571,VALID,0,VALID,26.0985,VALID,110,VALID,1.76953,
2011-03-02, 01:31:04,VALID,1001.91,VALID,0,INVALID,163.586,VALID,0,VALID,26.1375,VALID,121,VALID,1.81797,
2011-03-02, 01:32:04,VALID,1001.89,VALID,0,INVALID,163.571,VALID,0,VALID,26.1355,VALID,113,VALID,1.12344,
2011-03-02, 01:33:04,VALID,1001.89,VALID,0,INVALID,163.548,VALID,0,VALID,26.1375,VALID,124,VALID,1.53125,
2011-03-02, 01:34:04,VALID,1001.9,VALID,0,INVALID,163.571,VALID,0,VALID,26.1375,VALID,124,VALID,0.456641,
2011-03-02, 01:35:04,VALID,1001.93,VALID,0,INVALID,163.571,VALID,0,VALID,26.1375,VALID,124,VALID,0.673047,
2011-03-02, 01:36:04,VALID,1001.97,VALID,0,INVALID,163.563,VALID,0,VALID,26.118,VALID,149,VALID,1.10508,
2011-03-02, 01:37:04,VALID,1002,VALID,0,INVALID,163.571,VALID,0,VALID,26.118,VALID,111,VALID,1.73984,
2011-03-02, 01:38:04,VALID,1001.97,VALID,0,INVALID,163.556,VALID,0,VALID,26.157,VALID,116,VALID,2.69375,
2011-03-02, 01:39:04,VALID,1001.93,VALID,0,INVALID,163.54,VALID,0,VALID,26.2154,VALID,133,VALID,3.31445,
2011-03-02, 01:40:04,VALID,1001.95,VALID,0,INVALID,163.571,VALID,0,VALID,26.2154,VALID,114,VALID,1.09727,
2011-03-02, 01:41:04,VALID,1001.9,VALID,0,INVALID,163.578,VALID,0,VALID,26.2154,VALID,133,VALID,1.98086,
2011-03-02, 01:42:04,VALID,1001.87,VALID,0,INVALID,163.525,VALID,0,VALID,26.2349,VALID,120,VALID,1.46914,
2011-03-02, 01:43:04,VALID,1001.84,VALID,0,INVALID,163.548,VALID,0,VALID,26.2564,VALID,132,VALID,1.34609,
2011-03-02, 01:44:04,VALID,1001.81,VALID,0,INVALID,163.556,VALID,0,VALID,26.2349,VALID,143,VALID,1.5543,
2011-03-02, 01:45:04,VALID,1001.79,VALID,0,INVALID,163.548,VALID,0,VALID,26.2349,VALID,144,VALID,1.89648,
2011-03-02, 01:46:04,VALID,1001.74,VALID,0,INVALID,163.563,VALID,0,VALID,26.2154,VALID,104,VALID,1.83125,
2011-03-02, 01:47:04,VALID,1001.77,VALID,0,INVALID,163.556,VALID,0,VALID,26.1765,VALID,129,VALID,2.43398,
2011-03-02, 01:48:04,VALID,1001.77,VALID,0,INVALID,163.556,VALID,0,VALID,26.1959,VALID,140,VALID,1.17773,
2011-03-02, 01:49:04,VALID,1001.79,VALID,0,INVALID,163.548,VALID,0,VALID,26.1959,VALID,131,VALID,2.22813,
2011-03-02, 01:50:04,VALID,1001.79,VALID,0,INVALID,163.548,VALID,0,VALID,26.1355,VALID,126,VALID,1.93359,
2011-03-02, 01:51:04,VALID,1001.77,VALID,0,INVALID,159.917,VALID,0,VALID,26.1765,VALID,122,VALID,1.33086,
2011-03-02, 01:52:04,VALID,1001.74,VALID,0,INVALID,163.51,VALID,0,VALID,26.1375,VALID,112,VALID,1.72461,
2011-03-02, 01:53:04,VALID,1001.69,VALID,0,INVALID,157.063,VALID,0,VALID,26.118,VALID,123,VALID,1.52891,
2011-03-02, 01:54:04,VALID,1001.68,VALID,0,INVALID,162.953,VALID,0,VALID,26.118,VALID,116,VALID,1.26094,
2011-03-02, 01:55:04,VALID,1001.73,VALID,0,INVALID,124.198,VALID,0,VALID,26.12,VALID,133,VALID,4.84531,
2011-03-02, 01:56:04,VALID,1001.73,VALID,0,VALID,104,VALID,0,VALID,26.0985,VALID,159,VALID,3.32461,
2011-03-02, 01:57:04,VALID,1001.72,VALID,0,VALID,104,VALID,0,VALID,26.081,VALID,132,VALID,3.19883,
2011-03-02, 01:58:04,VALID,1001.73,VALID,0,VALID,104,VALID,0,VALID,26.0187,VALID,137,VALID,2.23281,
2011-03-02, 01:59:04,VALID,1001.75,VALID,0,VALID,102.288,VALID,0,VALID,25.9213,VALID,134,VALID,3.39375,
2011-03-02, 02:00:04,VALID,1001.73,VALID,0,VALID,103.745,VALID,0,VALID,25.8843,VALID,132,VALID,2.83477,
2011-03-02, 02:01:04,VALID,1001.69,VALID,0,VALID,104,VALID,0,VALID,25.8025,VALID,121,VALID,2.31016,
2011-03-02, 02:02:04,VALID,1001.67,VALID,0,INVALID,118.354,VALID,0,VALID,25.785,VALID,127,VALID,1.13672,
2011-03-02, 02:03:04,VALID,1001.65,VALID,0,INVALID,122.451,VALID,0,VALID,25.746,VALID,139,VALID,1.70078,
2011-03-02, 02:04:04,VALID,1001.65,VALID,0,INVALID,136.763,VALID,0,VALID,25.6876,VALID,133,VALID,1.71758,
2011-03-02, 02:05:04,VALID,1001.6,VALID,0,INVALID,162.861,VALID,0,VALID,25.6486,VALID,116,VALID,2.12578,
2011-03-02, 02:06:04,VALID,1001.57,VALID,0,INVALID,163.571,VALID,0.100563,VALID,25.5902,VALID,90,VALID,1.84219,
2011-03-02, 02:07:04,VALID,1001.54,VALID,0,INVALID,163.609,VALID,0,VALID,25.5727,VALID,128,VALID,2.03906,
2011-03-02, 02:08:04,VALID,1001.48,VALID,0,INVALID,163.601,VALID,0,VALID,25.5337,VALID,105,VALID,1.28477,
2011-03-02, 02:09:04,VALID,1001.48,VALID,0,INVALID,163.601,VALID,0,VALID,25.4928,VALID,138,VALID,1.41016,
2011-03-02, 02:10:04,VALID,1001.47,VALID,0,INVALID,163.594,VALID,0,VALID,25.4928,VALID,98,VALID,1.07109,
2011-03-02, 02:11:04,VALID,1001.46,VALID,0,INVALID,163.594,VALID,0,VALID,25.4539,VALID,90,VALID,1.30586,
2011-03-02, 02:12:04,VALID,1001.5,VALID,0,INVALID,163.617,VALID,0.100563,VALID,25.4363,VALID,129,VALID,1.20156,
2011-03-02, 02:13:04,VALID,1001.49,VALID,0,INVALID,163.609,VALID,0,VALID,25.4149,VALID,109,VALID,1.44414,
2011-03-02, 02:14:04,VALID,1001.46,VALID,0,INVALID,163.617,VALID,0.100563,VALID,25.4344,VALID,98,VALID,1.04922,
2011-03-02, 02:15:04,VALID,1001.41,VALID,0,INVALID,163.617,VALID,0.100563,VALID,25.4149,VALID,102,VALID,1.26367,
2011-03-02, 02:16:04,VALID,1001.41,VALID,0,INVALID,163.632,VALID,0.100563,VALID,25.4149,VALID,103,VALID,0.971094,
2011-03-02, 02:17:04,VALID,1001.38,VALID,0,INVALID,163.609,VALID,0,VALID,25.4149,VALID,88,VALID,1.38281,
2011-03-02, 02:18:04,VALID,1001.35,VALID,0,INVALID,163.624,VALID,0,VALID,25.4149,VALID,117,VALID,1.28477,
2011-03-02, 02:19:04,VALID,1001.39,VALID,0,INVALID,163.624,VALID,0.100563,VALID,25.4149,VALID,128,VALID,1.82422,
2011-03-02, 02:20:04,VALID,1001.4,VALID,0,INVALID,163.609,VALID,0,VALID,25.4169,VALID,96,VALID,1.95547,
2011-03-02, 02:21:04,VALID,1001.39,VALID,0,INVALID,163.639,VALID,0,VALID,25.4149,VALID,95,VALID,0.94375,
2011-03-02, 02:22:04,VALID,1001.4,VALID,0,INVALID,163.617,VALID,0.100563,VALID,25.4344,VALID,129,VALID,0.955469,
2011-03-02, 02:23:04,VALID,1001.37,VALID,0,INVALID,163.624,VALID,0.100563,VALID,25.3955,VALID,126,VALID,1.11289,
2011-03-02, 02:24:04,VALID,1001.39,VALID,0,INVALID,163.617,VALID,0.100563,VALID,25.376,VALID,114,VALID,0.963281,
2011-03-02, 02:25:04,VALID,1001.39,VALID,0,INVALID,163.647,VALID,0,VALID,25.3565,VALID,105,VALID,1.02813,
2011-03-02, 02:26:04,VALID,1001.33,VALID,0,INVALID,163.624,VALID,0,VALID,25.3584,VALID,79,VALID,0.509375,
2011-03-02, 02:27:04,VALID,1001.36,VALID,0,INVALID,163.601,VALID,0,VALID,25.3176,VALID,125,VALID,0.463281,
2011-03-02, 02:28:04,VALID,1001.3,VALID,0,INVALID,163.639,VALID,0.100563,VALID,25.2786,VALID,115,VALID,0.487109,
2011-03-02, 02:29:04,VALID,1001.27,VALID,0,INVALID,163.647,VALID,0,VALID,25.2592,VALID,89,VALID,1.21328,
2011-03-02, 02:30:04,VALID,1001.23,VALID,0,INVALID,163.662,VALID,0.100563,VALID,25.2786,VALID,98,VALID,1.0793,
2011-03-02, 02:31:04,VALID,1001.18,VALID,0,INVALID,163.617,VALID,0.100563,VALID,25.2786,VALID,135,VALID,1.11523,
2011-03-02, 02:32:04,VALID,1001.13,VALID,0,INVALID,163.632,VALID,0,VALID,25.2572,VALID,103,VALID,0.385938,
2011-03-02, 02:33:04,VALID,1001.12,VALID,0,INVALID,163.647,VALID,0.100563,VALID,25.2981,VALID,133,VALID,0.870703,
2011-03-02, 02:34:04,VALID,1001.13,VALID,0,INVALID,163.632,VALID,0.100563,VALID,25.2981,VALID,87,VALID,1.23281,
2011-03-02, 02:35:04,VALID,1001.19,VALID,0,INVALID,163.617,VALID,0.100563,VALID,25.3176,VALID,114,VALID,0.914063,
2011-03-02, 02:36:04,VALID,1001.22,VALID,0,INVALID,163.624,VALID,0,VALID,25.2981,VALID,115,VALID,0.796484,
2011-03-02, 02:37:04,VALID,1001.24,VALID,0,INVALID,163.639,VALID,0.100563,VALID,25.2786,VALID,91,VALID,0.965234,
2011-03-02, 02:38:04,VALID,1001.23,VALID,0,INVALID,163.647,VALID,0,VALID,25.2592,VALID,95,VALID,0.626953,
2011-03-02, 02:39:04,VALID,1001.22,VALID,0,INVALID,163.624,VALID,0.100563,VALID,25.2397,VALID,91,VALID,1.28867,
2011-03-02, 02:40:04,VALID,1001.2,VALID,0,INVALID,163.624,VALID,0,VALID,25.2007,VALID,107,VALID,1.11523,
2011-03-02, 02:41:04,VALID,1001.18,VALID,0,INVALID,163.624,VALID,0.100563,VALID,25.1813,VALID,76,VALID,0.843359,
2011-03-02, 02:42:04,VALID,1001.13,VALID,0,INVALID,163.617,VALID,0,VALID,25.1813,VALID,109,VALID,1.07344,
2011-03-02, 02:43:04,VALID,1001.16,VALID,0,INVALID,163.639,VALID,0,VALID,25.1618,VALID,99,VALID,0.99375,
2011-03-02, 02:44:04,VALID,1001.12,VALID,0,INVALID,163.647,VALID,0.100563,VALID,25.1618,VALID,95,VALID,0.933203,
2011-03-02, 02:45:04,VALID,1001.13,VALID,0,INVALID,163.662,VALID,0.100563,VALID,25.1423,VALID,87,VALID,0.397266,
2011-03-02, 02:46:04,VALID,1001.11,VALID,0,INVALID,163.624,VALID,0,VALID,25.1229,VALID,72,VALID,0.220703,
2011-03-02, 02:47:04,VALID,1001.11,VALID,0,INVALID,163.639,VALID,0,VALID,25.1229,VALID,109,VALID,0.359375,
2011-03-02, 02:48:04,VALID,1001.11,VALID,0,INVALID,163.662,VALID,0.100563,VALID,25.1034,VALID,58,VALID,0.6875,
2011-03-02, 02:49:04,VALID,1001.1,VALID,0,INVALID,163.632,VALID,0,VALID,25.1034,VALID,78,VALID,0.660547,
2011-03-02, 02:50:04,VALID,1001.09,VALID,0,INVALID,163.647,VALID,0.100563,VALID,25.1034,VALID,66,VALID,0.592969,
2011-03-02, 02:51:04,VALID,1001.1,VALID,0,INVALID,163.655,VALID,0.100563,VALID,25.0839,VALID,51,VALID,0.380859,
2011-03-02, 02:52:04,VALID,1001.05,VALID,0,INVALID,163.624,VALID,0,VALID,25.045,VALID,59,VALID,0.449219,
2011-03-02, 02:53:04,VALID,1001.03,VALID,0,INVALID,163.655,VALID,0,VALID,25.045,VALID,96,VALID,0.682813,
2011-03-02, 02:54:04,VALID,1001,VALID,0,INVALID,163.632,VALID,0,VALID,25.0255,VALID,90,VALID,0.836719,
2011-03-02, 02:55:04,VALID,1000.98,VALID,0,INVALID,163.655,VALID,0,VALID,24.9866,VALID,95,VALID,0.965234,
2011-03-02, 02:56:04,VALID,1000.97,VALID,0,INVALID,163.639,VALID,0.100563,VALID,24.9866,VALID,88,VALID,1.11563,
2011-03-02, 02:57:04,VALID,1001,VALID,0,INVALID,163.662,VALID,0.100563,VALID,24.9866,VALID,104,VALID,1.15,
2011-03-02, 02:58:04,VALID,1001.01,VALID,0,INVALID,163.647,VALID,0.100563,VALID,24.9671,VALID,117,VALID,0.846094,
2011-03-02, 02:59:04,VALID,1000.96,VALID,0,INVALID,163.647,VALID,0.100563,VALID,25.0274,VALID,114,VALID,0.748047,
2011-03-02, 03:00:04,VALID,1000.97,VALID,0,INVALID,163.624,VALID,0,VALID,24.9866,VALID,97,VALID,0.325,
2011-03-02, 03:01:04,VALID,1000.99,VALID,0,INVALID,163.647,VALID,0,VALID,25.006,VALID,106,VALID,1.3043,
2011-03-02, 03:02:04,VALID,1001,VALID,0,INVALID,163.639,VALID,0,VALID,25.0469,VALID,108,VALID,1.26914,
2011-03-02, 03:03:04,VALID,1001,VALID,0,INVALID,163.647,VALID,0,VALID,25.0469,VALID,86,VALID,0.837109,
2011-03-02, 03:04:04,VALID,1001,VALID,0,INVALID,163.647,VALID,0,VALID,25.045,VALID,85,VALID,0.334766,
2011-03-02, 03:05:04,VALID,1001.01,VALID,0,INVALID,163.639,VALID,0,VALID,25.0041,VALID,85,VALID,0.608203,
2011-03-02, 03:06:04,VALID,1000.98,VALID,0,INVALID,163.647,VALID,0,VALID,25.006,VALID,85,VALID,0.393359,
2011-03-02, 03:07:04,VALID,1000.97,VALID,0,INVALID,163.655,VALID,0,VALID,24.9866,VALID,85,VALID,0.0558594,
2011-03-02, 03:08:04,VALID,1000.95,VALID,0,INVALID,163.662,VALID,0,VALID,24.9476,VALID,85,VALID,0.0015625,
2011-03-02, 03:09:04,VALID,1000.92,VALID,0,INVALID,163.655,VALID,0.100563,VALID,24.9282,VALID,7,VALID,0.388672,
2011-03-02, 03:10:04,VALID,1000.89,VALID,0,INVALID,163.655,VALID,0.100563,VALID,24.9282,VALID,7,VALID,0.262109,
2011-03-02, 03:11:04,VALID,1000.84,VALID,0,INVALID,163.662,VALID,0,VALID,24.8892,VALID,7,VALID,0,
2011-03-02, 03:12:04,VALID,1000.83,VALID,0,INVALID,163.655,VALID,0.100563,VALID,24.8892,VALID,7,VALID,0.145313,
2011-03-02, 03:13:04,VALID,1000.81,VALID,0,INVALID,163.662,VALID,0,VALID,24.8522,VALID,7,VALID,0.359766,
2011-03-02, 03:14:04,VALID,1000.77,VALID,0,INVALID,163.647,VALID,0,VALID,24.8327,VALID,98,VALID,0.903906,
2011-03-02, 03:15:04,VALID,1000.71,VALID,0,INVALID,163.678,VALID,0,VALID,24.8308,VALID,91,VALID,0.619141,
2011-03-02, 03:16:04,VALID,1000.7,VALID,0,INVALID,163.639,VALID,0,VALID,24.8327,VALID,91,VALID,0.616797,
2011-03-02, 03:17:04,VALID,1000.68,VALID,0,INVALID,163.678,VALID,0,VALID,24.8132,VALID,92,VALID,0.769922,
2011-03-02, 03:18:04,VALID,1000.67,VALID,0,INVALID,163.647,VALID,0,VALID,24.8132,VALID,92,VALID,0.564453,
2011-03-02, 03:19:04,VALID,1000.69,VALID,0,INVALID,163.655,VALID,0,VALID,24.7937,VALID,92,VALID,0.437109,
2011-03-02, 03:20:04,VALID,1000.66,VALID,0,INVALID,163.67,VALID,0,VALID,24.714,VALID,92,VALID,0.314453,
2011-03-02, 03:21:04,VALID,1000.67,VALID,0,INVALID,163.685,VALID,0,VALID,24.7159,VALID,92,VALID,0.411328,
2011-03-02, 03:22:04,VALID,1000.67,VALID,0,INVALID,163.67,VALID,0,VALID,24.6788,VALID,92,VALID,0.496875,
2011-03-02, 03:23:04,VALID,1000.66,VALID,0,INVALID,163.67,VALID,0,VALID,24.6593,VALID,92,VALID,0.4,
2011-03-02, 03:24:04,VALID,1000.64,VALID,0,INVALID,163.67,VALID,0,VALID,24.599,VALID,93,VALID,0.330469,
2011-03-02, 03:25:04,VALID,1000.64,VALID,0,INVALID,163.685,VALID,0,VALID,24.5796,VALID,97,VALID,0.589063,
2011-03-02, 03:26:04,VALID,1000.63,VALID,0,INVALID,163.708,VALID,0,VALID,24.5406,VALID,96,VALID,0.592188,
2011-03-02, 03:27:04,VALID,1000.58,VALID,0,INVALID,163.693,VALID,0,VALID,24.5212,VALID,95,VALID,0.380859,
2011-03-02, 03:28:04,VALID,1000.61,VALID,0,INVALID,163.685,VALID,0,VALID,24.5193,VALID,95,VALID,0.456641,
2011-03-02, 03:29:04,VALID,1000.57,VALID,0,INVALID,163.655,VALID,0.100563,VALID,24.4998,VALID,95,VALID,0.607813,
2011-03-02, 03:30:04,VALID,1000.58,VALID,0,INVALID,163.708,VALID,0.100563,VALID,24.498,VALID,94,VALID,0.729297,
2011-03-02, 03:31:04,VALID,1000.6,VALID,0,INVALID,163.685,VALID,0,VALID,24.4998,VALID,81,VALID,0.964063,
2011-03-02, 03:32:04,VALID,1000.62,VALID,0,INVALID,163.693,VALID,0,VALID,24.4414,VALID,102,VALID,0.965625,
2011-03-02, 03:33:04,VALID,1000.61,VALID,0,INVALID,163.701,VALID,0,VALID,24.4025,VALID,88,VALID,0.856641,
2011-03-02, 03:34:04,VALID,1000.59,VALID,0,INVALID,163.701,VALID,0,VALID,24.383,VALID,80,VALID,0.647266,
2011-03-02, 03:35:04,VALID,1000.62,VALID,0,INVALID,163.685,VALID,0,VALID,24.383,VALID,81,VALID,1.1043,
2011-03-02, 03:36:04,VALID,1000.58,VALID,0,INVALID,163.701,VALID,0,VALID,24.3654,VALID,70,VALID,0.655469,
2011-03-02, 03:37:04,VALID,1000.57,VALID,0,INVALID,163.701,VALID,0,VALID,24.3849,VALID,75,VALID,0.306641,
2011-03-02, 03:38:04,VALID,1000.56,VALID,0,INVALID,163.67,VALID,0,VALID,24.3849,VALID,96,VALID,0.471875,
2011-03-02, 03:39:04,VALID,1000.53,VALID,0,INVALID,163.678,VALID,0,VALID,24.4238,VALID,96,VALID,0.821875,
2011-03-02, 03:40:04,VALID,1000.51,VALID,0,INVALID,163.685,VALID,0,VALID,24.4433,VALID,91,VALID,0.967578,
2011-03-02, 03:41:04,VALID,1000.49,VALID,0,INVALID,163.685,VALID,0,VALID,24.4822,VALID,103,VALID,0.749609,